{"data":{"norad_id":67054,"epoch":"2026-05-24T21:20:13.035264Z","epoch_age_seconds":74901,"freshness":"FRESH","line1":"1 67054U 25294AA  26144.88903976  .00010598  00000+0  39396-3 0  9996","line2":"2 67054  43.0025 327.6767 0001251 273.6637  86.4072 15.27591250 26450","mean_motion":15.2759125,"eccentricity":0.0001251,"inclination_deg":43.0025,"raan_deg":327.6767,"arg_perigee_deg":273.6637,"mean_anomaly_deg":86.4072,"bstar":0.00039396,"rev_number":2645,"period_min":94.266054482834,"perigee_km":482.15707953277,"apogee_km":483.87373986568,"semimajor_km":6861.1524096992,"source":"CELESTRAK","updated_at":"2026-05-25T13:38:21.441633Z"}}